Home   Weather   Basseterre   Past weeks

Flag for Saint Kitts and Nevis Past Weather in Basseterre, Saint Kitts and Nevis — Yesterday and Last 2 Weeks

Now
82 °F

Passing clouds.


Feels Like: 92 °F
Forecast: 82 / 87 °F
Wind: 10 mph from Northeast

Location: Golden Rock

Current Time: Sep 26, 2016 at 9:58:36 PM

Latest Report: Sep 26, 2016 at 9:00 PM


Visibility: N/A

Pressure: 29.95 "Hg

Humidity: 89%

Dew Point: 79 °F

Location of BasseterreLocation

Past Weather in Basseterre — Graph

°F

Basseterre Temperature Yesterday

Maximum temperature yesterday: 88 °F (at 10:00 AM)
Minimum temperature yesterday: 81 °F (at 6:00 AM)
Average temperature yesterday: 85 °F

High & Low Weather Summary for the Past Weeks

 TemperatureHumidityPressure
High88 °F (Sep 12, 11:00 AM)94% (Sep 17, 8:00 PM)30.04 "Hg (Sep 17, 8:00 PM)
Low77 °F (Sep 18, 6:00 AM)62% (Sep 14, 1:00 PM)29.83 "Hg (Sep 21, 3:00 PM)
Average84 °F77%29.96 "Hg
* Reported Sep 11 9:00 PM — Sep 26 9:00 PM, Basseterre, Weather by CustomWeather, © 2016

Note: Actual official high and low records may vary slightly from our data, if they occured in-between our weather recording intervals... More about our weather records

Advertising

Basseterre Weather History for the Previous 24 Hours

Scroll right to see more
 ConditionsComfort  
Time TempWeatherWind HumidityBarometerVisibility
9:00 PM
Mon, Sep 26
82 °FPassing clouds.10 mph89%29.95 "HgN/A
8:00 PM82 °FPassing clouds.13 mph89%29.95 "HgN/A
7:00 PM84 °FPassing clouds.8 mph84%29.92 "HgN/A
6:00 PM84 °FScattered clouds.10 mph79%29.92 "HgN/A
5:00 PM86 °FThunderstorms. Cloudy.9 mph79%29.92 "HgN/A
4:00 PM86 °FThunderstorms. Cloudy.12 mph79%29.89 "HgN/A
3:00 PM86 °FScattered clouds.13 mph75%29.89 "HgN/A
2:00 PM88 °FPassing clouds.13 mph70%29.92 "HgN/A
1:00 PM88 °FPassing clouds.7 mph70%29.92 "HgN/A
12:00 PM88 °FPassing clouds.9 mph75%29.98 "HgN/A
11:00 AM88 °FPassing clouds.10 mph66%29.98 "HgN/A
10:00 AM88 °FPassing clouds.7 mph66%29.98 "HgN/A
9:00 AM86 °FPassing clouds.6 mph70%29.98 "HgN/A
8:00 AM84 °FScattered clouds.12 mph79%29.98 "HgN/A
7:00 AM82 °FPassing clouds.7 mph79%29.95 "HgN/A
6:00 AM81 °FScattered clouds.7 mph84%29.92 "HgN/A
9:00 PM
Sun, Sep 25
82 °FPassing clouds.8 mph79%29.98 "HgN/A
Weather by CustomWeather, © 2016

See weather overviewHow to use our weather pages